TimeEDT,TemperatureF,Dew PointF,Humidity,Sea Level PressureIn,VisibilityMPH,Wind Direction,Wind SpeedMPH,Gust SpeedMPH,PrecipitationIn,Events,Conditions,WindDirDegrees,DateUTC
12:53 AM,73.0,73.0,100,29.86,10.0,East,5.8,-,N/A,,Overcast,90,2012-10-18 04:53:00
1:53 AM,73.0,72.0,96,29.85,10.0,East,5.8,-,N/A,,Overcast,90,2012-10-18 05:53:00
2:53 AM,73.0,72.0,96,29.83,10.0,East,5.8,-,N/A,,Overcast,90,2012-10-18 06:53:00
3:53 AM,73.0,72.0,96,29.81,10.0,East,5.8,-,N/A,,Overcast,100,2012-10-18 07:53:00
4:53 AM,73.0,73.0,100,29.81,10.0,East,4.6,-,N/A,,Overcast,90,2012-10-18 08:53:00
5:53 AM,73.0,73.0,100,29.82,10.0,East,4.6,-,N/A,,Overcast,80,2012-10-18 09:53:00
6:53 AM,73.0,73.0,100,29.84,10.0,ENE,5.8,-,N/A,,Overcast,70,2012-10-18 10:53:00
7:53 AM,73.0,73.0,100,29.86,10.0,East,3.5,-,N/A,,Overcast,90,2012-10-18 11:53:00
8:42 AM,73.4,73.4,100,29.88,1.8,SSE,8.1,-,0.02,Rain,Rain,160,2012-10-18 12:42:00
8:53 AM,73.9,73.9,100,29.88,1.8,SE,6.9,-,0.05,Rain,Rain,130,2012-10-18 12:53:00
9:00 AM,73.4,73.4,100,29.88,3.0,ESE,6.9,-,0.00,Rain,Light Rain,120,2012-10-18 13:00:00
9:29 AM,75.2,75.2,100,29.89,2.5,Calm,Calm,-,0.02,Rain,Light Rain,0,2012-10-18 13:29:00
9:38 AM,75.2,75.2,100,29.89,6.0,Calm,Calm,-,0.02,Rain,Light Rain,0,2012-10-18 13:38:00
9:53 AM,75.9,75.0,97,29.89,5.0,Calm,Calm,-,0.02,Rain,Light Rain,0,2012-10-18 13:53:00
10:53 AM,77.0,75.9,96,29.89,10.0,SE,5.8,-,0.01,,Overcast,130,2012-10-18 14:53:00
11:01 AM,77.0,75.2,94,29.89,10.0,SE,3.5,-,N/A,,Mostly Cloudy,140,2012-10-18 15:01:00
11:50 AM,80.6,77.0,89,29.89,10.0,SE,5.8,-,N/A,,Clear,140,2012-10-18 15:50:00
11:53 AM,80.1,77.0,90,29.88,10.0,SE,3.5,-,N/A,,Partly Cloudy,130,2012-10-18 15:53:00
12:53 PM,82.9,73.9,74,29.87,10.0,SSW,6.9,-,N/A,,Mostly Cloudy,200,2012-10-18 16:53:00
1:53 PM,84.0,75.9,76,29.85,10.0,SW,11.5,-,N/A,,Scattered Clouds,230,2012-10-18 17:53:00
2:53 PM,84.0,73.9,72,29.83,10.0,SSW,8.1,-,N/A,,Scattered Clouds,210,2012-10-18 18:53:00
3:53 PM,84.0,75.0,74,29.81,10.0,SW,8.1,-,N/A,,Clear,230,2012-10-18 19:53:00
4:53 PM,84.0,77.0,79,29.81,10.0,SSW,10.4,-,N/A,,Scattered Clouds,210,2012-10-18 20:53:00
5:29 PM,82.4,75.2,79,29.81,10.0,South,11.5,25.3,N/A,,Partly Cloudy,180,2012-10-18 21:29:00
5:53 PM,82.9,75.0,77,29.82,10.0,South,6.9,-,N/A,,Clear,190,2012-10-18 21:53:00
6:53 PM,81.0,75.9,85,29.83,10.0,SSW,6.9,-,N/A,,Clear,210,2012-10-18 22:53:00
7:53 PM,81.0,75.9,85,29.85,10.0,Calm,Calm,-,N/A,,Clear,0,2012-10-18 23:53:00
8:53 PM,80.1,77.0,90,29.86,10.0,SSW,3.5,-,N/A,,Clear,210,2012-10-19 00:53:00
9:53 PM,80.1,77.0,90,29.87,10.0,Calm,Calm,-,N/A,,Partly Cloudy,0,2012-10-19 01:53:00
10:53 PM,78.1,77.0,96,29.87,10.0,Calm,Calm,-,N/A,,Clear,0,2012-10-19 02:53:00
11:53 PM,78.1,77.0,96,29.87,9.0,Calm,Calm,-,N/A,,Partly Cloudy,0,2012-10-19 03:53:00